TimeEDT,TemperatureF,Dew PointF,Humidity,Sea Level PressureIn,VisibilityMPH,Wind Direction,Wind SpeedMPH,Gust SpeedMPH,PrecipitationIn,Events,Conditions,WindDirDegrees,DateUTC
12:53 AM,73.0,71.1,93,29.97,9.0,SSE,3.5,-,N/A,,Clear,150,2013-07-22 04:53:00
1:53 AM,72.0,71.1,97,29.96,6.0,SE,5.8,-,N/A,,Clear,140,2013-07-22 05:53:00
2:53 AM,72.0,70.0,93,29.95,6.0,Calm,Calm,-,N/A,,Clear,0,2013-07-22 06:53:00
3:53 AM,71.1,70.0,96,29.94,5.0,East,4.6,-,N/A,,Clear,80,2013-07-22 07:53:00
4:53 AM,71.1,69.1,93,29.94,6.0,ESE,4.6,-,N/A,,Clear,110,2013-07-22 08:53:00
5:53 AM,70.0,68.0,93,29.95,2.0,NNW,3.5,-,N/A,,Scattered Clouds,330,2013-07-22 09:53:00
6:00 AM,69.8,69.8,100,29.93,1.0,Calm,Calm,-,N/A,,Mostly Cloudy,0,2013-07-22 10:00:00
6:16 AM,69.8,69.8,100,29.93,2.0,NW,3.5,-,N/A,,Overcast,320,2013-07-22 10:16:00
6:37 AM,69.8,69.8,100,29.94,2.0,NNW,3.5,-,N/A,,Overcast,330,2013-07-22 10:37:00
6:50 AM,69.8,69.8,100,29.94,1.8,Calm,Calm,-,N/A,,Overcast,0,2013-07-22 10:50:00
6:53 AM,71.1,70.0,96,29.95,1.8,Calm,Calm,-,N/A,,Overcast,0,2013-07-22 10:53:00
6:57 AM,71.6,69.8,94,29.94,2.0,Calm,Calm,-,N/A,,Overcast,0,2013-07-22 10:57:00
7:05 AM,71.6,69.8,94,29.94,3.0,Calm,Calm,-,N/A,,Overcast,0,2013-07-22 11:05:00
7:12 AM,71.6,69.8,94,29.94,3.0,Calm,Calm,-,N/A,,Mostly Cloudy,0,2013-07-22 11:12:00
7:29 AM,71.6,69.8,94,29.94,2.5,NNW,4.6,-,N/A,,Scattered Clouds,330,2013-07-22 11:29:00
7:42 AM,71.6,69.8,94,29.94,2.5,NNW,4.6,-,N/A,,Mostly Cloudy,330,2013-07-22 11:42:00
7:53 AM,72.0,71.1,97,29.95,2.5,NW,4.6,-,N/A,,Mostly Cloudy,310,2013-07-22 11:53:00
8:53 AM,73.0,71.1,93,29.96,2.5,NW,3.5,-,N/A,,Overcast,310,2013-07-22 12:53:00
9:05 AM,75.2,71.6,89,29.94,3.0,Calm,Calm,-,N/A,,Mostly Cloudy,0,2013-07-22 13:05:00
9:17 AM,75.2,71.6,89,29.94,5.0,Calm,Calm,-,N/A,,Scattered Clouds,0,2013-07-22 13:17:00
9:53 AM,75.0,72.0,90,29.96,4.0,West,3.5,-,N/A,,Scattered Clouds,280,2013-07-22 13:53:00
10:01 AM,75.2,71.6,89,29.94,4.0,NW,3.5,-,N/A,,Mostly Cloudy,310,2013-07-22 14:01:00
10:13 AM,75.2,71.6,89,29.94,5.0,West,3.5,-,N/A,,Mostly Cloudy,280,2013-07-22 14:13:00
10:53 AM,77.0,72.0,84,29.96,4.0,WNW,6.9,-,N/A,,Haze,290,2013-07-22 14:53:00
11:34 AM,78.8,71.6,78,29.94,8.0,West,3.5,-,N/A,,Mostly Cloudy,280,2013-07-22 15:34:00
11:43 AM,78.8,71.6,78,29.93,9.0,Variable,3.5,-,N/A,,Scattered Clouds,0,2013-07-22 15:43:00
11:53 AM,79.0,71.1,77,29.94,9.0,Calm,Calm,-,N/A,,Scattered Clouds,0,2013-07-22 15:53:00
12:02 PM,78.8,71.6,78,29.93,9.0,Calm,Calm,-,N/A,,Mostly Cloudy,0,2013-07-22 16:02:00
12:40 PM,80.6,69.8,70,29.91,10.0,SSE,8.1,-,N/A,,Mostly Cloudy,150,2013-07-22 16:40:00
12:53 PM,82.0,70.0,67,29.92,10.0,SSW,6.9,-,N/A,,Scattered Clouds,200,2013-07-22 16:53:00
1:53 PM,82.9,69.1,63,29.90,10.0,SSE,5.8,-,N/A,,Mostly Cloudy,160,2013-07-22 17:53:00
2:53 PM,84.0,70.0,63,29.87,10.0,South,6.9,-,N/A,,Mostly Cloudy,170,2013-07-22 18:53:00
3:53 PM,84.0,69.1,61,29.84,10.0,SSE,5.8,-,N/A,,Scattered Clouds,160,2013-07-22 19:53:00
4:53 PM,84.0,69.1,61,29.83,10.0,South,4.6,-,N/A,,Scattered Clouds,190,2013-07-22 20:53:00
5:53 PM,81.0,73.0,77,29.82,10.0,Calm,Calm,-,0.01,Rain,Light Rain,0,2013-07-22 21:53:00
6:53 PM,79.0,73.9,84,29.81,10.0,NW,6.9,-,0.00,Rain,Light Rain,310,2013-07-22 22:53:00
7:53 PM,75.9,73.9,94,29.82,6.0,NNW,3.5,-,0.02,Rain,Light Rain,340,2013-07-22 23:53:00
8:53 PM,75.0,73.9,96,29.83,3.0,Calm,Calm,-,0.12,Rain,Rain,0,2013-07-23 00:53:00
9:12 PM,75.2,73.4,94,29.80,5.0,West,4.6,-,0.03,Rain,Light Rain,270,2013-07-23 01:12:00
9:21 PM,75.2,73.4,94,29.80,4.0,Calm,Calm,-,0.05,Rain,Rain,0,2013-07-23 01:21:00
9:41 PM,75.2,73.4,94,29.80,5.0,SSE,4.6,-,0.09,Rain,Light Rain,150,2013-07-23 01:41:00
9:49 PM,73.4,73.4,100,29.80,6.0,SE,4.6,-,0.10,Rain-Thunderstorm,Light Rain,140,2013-07-23 01:49:00
9:53 PM,73.9,72.0,93,29.81,5.0,SSE,4.6,-,0.11,Rain-Thunderstorm,Rain,150,2013-07-23 01:53:00
10:23 PM,71.6,69.8,94,29.80,10.0,SSE,4.6,-,0.04,Rain,Light Rain,160,2013-07-23 02:23:00
10:53 PM,72.0,71.1,97,29.81,10.0,Calm,Calm,-,0.05,,Clear,0,2013-07-23 02:53:00
11:53 PM,72.0,70.0,93,29.81,10.0,Calm,Calm,-,N/A,,Mostly Cloudy,0,2013-07-23 03:53:00
11:58 PM,71.6,69.8,94,29.79,10.0,Calm,Calm,-,N/A,,Overcast,0,2013-07-23 03:58:00